1500897601.19,25179,22.38,73868.8,15.69,-0.53,-1.39,0,*73
1500897602.43,25180,22.44,73868.5,15.71,-1.71,-2.71,0,*42
1500897603.62,25181,22.44,73872.8,15.69,-1.79,-2.79,0,*4A
1500897604.83,25182,22.38,73874.0,15.69,-1.83,-2.83,0,*49
1500897606.07,25183,22.44,73872.5,15.69,-1.09,-2.07,0,*46
1500897607.29,25184,22.38,73868.8,15.67,0.13,-0.69,0,*62
1500897608.49,25185,22.38,73870.0,15.69,0.63,-0.41,0,*60
1500897609.67,25186,22.38,73870.8,15.73,-0.49,-1.29,0,*72
1500897610.89,25187,22.38,73870.0,15.71,-0.29,-0.93,0,*47
1500897612.06,25188,22.44,73872.3,15.73,0.01,-0.41,0,*52
1500897613.26,25189,22.38,73868.5,15.73,-0.49,-0.93,0,*4D
1500897614.46,25190,22.44,73872.3,15.77,-0.57,-1.09,0,*7C
1500897615.73,25191,22.38,73870.5,15.75,-1.43,-2.11,0,*41
1500897616.99,25192,22.44,73874.5,15.75,-2.07,-2.71,0,*47
1500897618.24,25193,22.38,73870.8,15.75,-2.07,-2.95,0,*4C
1500897619.42,25194,22.38,73870.3,15.73,-2.39,-3.27,0,*48
1500897620.63,25195,22.44,73868.8,15.73,-1.63,-2.55,0,*41
1500897621.84,25196,22.44,73872.5,15.71,-0.77,-1.33,0,*77
1500897623.08,25197,22.44,73874.3,15.71,-0.97,-1.67,0,*79
1500897624.3,25198,22.44,73872.5,15.73,-1.05,-1.67,0,*4E
1500897625.54,25199,22.44,73874.3,15.71,-0.97,-1.63,0,*73
1500897626.75,25200,22.44,73876.5,15.73,-1.47,-2.27,0,*4D
1500897628.01,25201,22.44,73876.3,15.71,-2.67,-3.47,0,*48
1500897629.22,25202,22.38,73872.0,15.71,-2.31,-3.15,0,*4F
1500897630.48,25203,22.38,73870.8,15.71,-1.83,-2.59,0,*4D
1500897631.75,25204,22.44,73874.0,15.71,-1.39,-1.95,0,*48
1500897632.93,25205,22.44,73874.3,15.69,-1.51,-2.27,0,*44
1500897634.14,25206,22.38,73868.0,15.73,-1.29,-1.91,0,*4D
1500897635.41,25207,22.44,73868.5,15.71,-1.43,-2.03,0,*4A
1500897636.62,25208,22.44,73870.8,15.71,-1.55,-2.27,0,*44
1500897637.83,25209,22.44,73872.0,15.71,-2.27,-3.07,0,*40
1500897639.04,25210,22.38,73868.5,15.69,-2.95,-3.67,0,*4E
1500897640.29,25211,22.44,73872.3,15.67,-4.41,-5.19,0,*41
1500897641.53,25212,22.44,73870.5,15.63,-4.45,-5.19,0,*42
1500897642.74,25213,22.38,73864.8,15.61,-3.43,-4.13,0,*4B
1500897643.98,25214,22.44,73866.5,15.59,-3.03,-3.71,0,*40
1500897645.19,25215,22.38,73860.8,15.57,-2.83,-3.51,0,*44
1500897646.43,25216,22.44,73868.3,15.57,-2.75,-3.43,0,*4D
1500897647.64,25217,22.38,73864.3,15.57,-3.43,-4.09,0,*41
1500897648.83,25218,22.44,73866.3,15.57,-3.23,-3.83,0,*4D
1500897650.06,25219,22.44,73864.3,15.57,-3.51,-4.13,0,*47
1500897651.27,25220,22.38,73862.8,15.53,-4.89,-5.47,0,*4B
1500897652.51,25221,22.38,73862.8,15.51,-4.85,-5.51,0,*43
1500897653.73,25222,22.38,73862.5,15.49,-4.61,-5.11,0,*47
1500897654.98,25223,22.38,73866.0,15.45,-3.63,-4.21,0,*4D
1500897656.21,25224,22.44,73866.3,15.45,-2.99,-3.43,0,*4D
1500897657.46,25225,22.38,73868.3,15.45,-3.59,-4.13,0,*43
1500897658.7,25226,22.38,73866.8,15.45,-2.35,-2.67,0,*4E
1500897659.91,25227,22.38,73864.3,15.47,-1.55,-1.95,0,*46
1500897661.14,25228,22.38,73864.0,15.45,-3.07,-3.47,0,*43
1500897662.36,25229,22.38,73866.5,15.47,-1.71,-1.99,0,*42
1500897663.55,25230,22.38,73864.5,15.47,-1.59,-1.79,0,*4E
1500897664.77,25231,22.44,73870.0,15.49,-1.17,-1.39,0,*4F
1500897666.02,25232,22.44,73868.5,15.51,-2.03,-2.27,0,*4F
1500897667.25,25233,22.44,73868.0,15.51,-1.95,-2.27,0,*42
1500897668.5,25234,22.44,73870.5,15.51,-2.03,-2.31,0,*4E
1500897669.75,25235,22.38,73870.8,15.51,-1.43,-1.63,0,*4C
1500897670.96,25236,22.44,73870.3,15.51,-2.27,-2.43,0,*4F
1500897672.15,25237,22.38,73866.0,15.53,-2.15,-2.27,0,*4F
1500897673.37,25238,22.38,73866.8,15.53,-2.63,-2.79,0,*4A
1500897674.61,25239,22.38,73868.3,15.53,-2.59,-2.71,0,*4A
1500897675.85,25240,22.38,73870.5,15.53,-2.63,-2.71,0,*4D
1500897677.04,25241,22.44,73872.5,15.53,-2.35,-2.27,0,*4C
1500897678.23,25242,22.38,73868.5,15.53,-1.63,-1.51,0,*4D
1500897679.47,25243,22.38,73866.5,15.55,-1.33,-1.13,0,*49
1500897680.69,25244,22.44,73872.3,15.55,-1.33,-1.25,0,*4B
1500897681.93,25245,22.44,73870.0,15.55,-1.33,-1.13,0,*4F
1500897683.15,25246,22.38,73868.5,15.57,-1.47,-1.33,0,*4F
1500897684.41,25247,22.44,73874.3,15.59,-1.09,-1.01,0,*4B
1500897685.63,25248,22.44,73872.3,15.61,-1.39,-1.17,0,*4B
1500897686.85,25249,22.38,73866.5,15.61,-2.03,-1.75,0,*44
1500897688.1,25250,22.44,73868.8,15.63,-1.71,-1.39,0,*40
1500897689.31,25251,22.38,73868.5,15.61,-1.29,-1.01,0,*45
1500897690.55,25252,22.44,73868.5,15.63,-2.59,-2.39,0,*48
1500897691.74,25253,22.44,73868.8,15.61,-1.79,-1.63,0,*46
1500897692.98,25254,22.44,73868.5,15.63,-2.23,-1.99,0,*4A
1500897694.23,25255,22.44,73868.8,15.63,-2.99,-2.75,0,*4B
1500897695.47,25256,22.44,73868.0,15.63,-3.55,-3.79,0,*44
1500897696.69,25257,22.38,73868.8,15.61,-2.99,-2.75,0,*4B
1500897697.9,25258,22.44,73872.3,15.61,-1.79,-1.47,0,*4B
1500897699.12,25259,22.38,73868.5,15.61,-2.03,-1.71,0,*41
1500897700.37,25260,22.44,73874.3,15.63,-2.47,-2.15,0,*48
1500897701.6,25261,22.44,73870.5,15.63,-3.87,-3.55,0,*41
1500897702.81,25262,22.44,73870.8,15.61,-4.81,-4.41,0,*43
1500897704.03,25263,22.44,73868.8,15.59,-4.99,-4.61,0,*42
1500897705.24,25264,22.38,73864.0,15.55,-4.53,-4.13,0,*4A
1500897706.46,25265,22.38,73864.8,15.53,-3.11,-2.71,0,*4E
1500897707.68,25266,22.44,73870.5,15.53,-2.27,-1.83,0,*47
1500897708.92,25267,22.38,73866.8,15.55,-3.87,-3.51,0,*46
1500897710.11,25268,22.38,73870.5,15.53,-3.39,-2.87,0,*40
1500897711.3,25269,22.44,73868.3,15.53,-4.41,-3.87,0,*48
1500897712.52,25270,22.38,73870.0,15.49,-5.19,-4.61,0,*48
1500897713.73,25271,22.38,73864.5,15.47,-4.73,-4.25,0,*4A
1500897714.97,25272,22.38,73868.5,15.45,-3.43,-2.83,0,*45
1500897716.18,25273,22.38,73868.3,15.47,-1.91,-1.33,0,*43
1500897717.38,25274,22.44,73868.0,15.47,-2.79,-2.19,0,*4A
1500897718.59,25275,22.44,73868.5,15.47,-1.95,-1.25,0,*46
1500897719.8,25276,22.38,73866.3,15.49,-2.07,-1.29,0,*4F
1500897721.05,25277,22.38,73866.3,15.51,-3.03,-2.51,0,*4E
1500897722.3,25278,22.44,73868.5,15.51,-3.71,-3.07,0,*46
1500897723.51,25279,22.44,73870.5,15.49,-4.05,-3.43,0,*4A
1500897724.72,25280,22.44,73872.0,15.49,-3.71,-3.03,0,*4C
1500897725.94,25281,22.44,73870.8,15.47,-3.23,-2.55,0,*46
1500897727.13,25282,22.38,73868.3,15.47,-3.31,-2.79,0,*48
1500897728.38,25283,22.44,73868.8,15.45,-3.31,-2.71,0,*43
1500897729.62,25284,22.44,73868.3,15.45,-2.19,-1.47,0,*49
1500897730.86,25285,22.44,73868.8,15.47,-1.91,-1.35,0,*4C
1500897732.05,25286,22.44,73870.5,15.47,-2.31,-1.59,0,*4C
1500897733.26,25287,22.38,73864.0,15.47,-1.99,-1.33,0,*40
1500897734.46,25288,22.44,73868.0,15.49,-3.03,-2.39,0,*49
1500897735.68,25289,22.38,73864.0,15.49,-3.07,-2.51,0,*42
1500897736.87,25290,22.38,73866.5,15.49,-2.31,-1.51,0,*4D
1500897738.1,25291,22.44,73868.8,15.49,-3.27,-2.55,0,*4D
1500897739.28,25292,22.44,73870.8,15.49,-2.39,-1.75,0,*41
1500897740.53,25293,22.38,73868.0,15.49,-2.55,-1.91,0,*40
1500897741.74,25294,22.44,73870.8,15.49,-1.87,-1.17,0,*45
1500897742.95,25295,22.44,73868.5,15.49,-1.67,-0.89,0,*7C
1500897744.17,25296,22.44,73868.3,15.51,-1.29,-0.65,0,*7E
1500897745.41,25297,22.44,73868.0,15.51,-1.39,-0.57,0,*7F
1500897746.63,25298,22.44,73868.3,15.51,-1.17,-0.45,0,*7F
1500897747.87,25299,22.38,73864.5,15.55,-1.47,-0.81,0,*77
1500897749.11,25300,22.44,73868.8,15.53,-1.83,-1.13,0,*42
1500897750.35,25301,22.44,73870.0,15.55,-2.83,-2.07,0,*40
1500897751.6,25302,22.38,73868.0,15.55,-2.47,-1.67,0,*4E
1500897752.8,25303,22.44,73868.8,15.53,-3.87,-3.27,0,*42
1500897754.04,25304,22.38,73864.3,15.53,-2.75,-2.03,0,*4E
1500897755.27,25305,22.44,73870.3,15.53,-3.39,-2.71,0,*43
1500897756.46,25306,22.38,73868.3,15.53,-2.79,-2.23,0,*42
1500897757.68,25307,22.44,73870.0,15.49,-3.43,-2.83,0,*4A
1500897758.87,25308,22.44,73870.3,15.49,-2.83,-2.15,0,*47
1500897760.06,25309,22.44,73868.5,15.49,-2.91,-2.15,0,*45
1500897761.27,25310,22.38,73868.0,15.49,-3.43,-2.79,0,*49
1500897762.48,25311,22.44,73866.0,15.49,-4.81,-4.17,0,*4F
1500897763.69,25312,22.38,73868.8,15.47,-4.21,-3.47,0,*4A
1500897764.88,25313,22.38,73870.8,15.43,-4.41,-3.79,0,*44
1500897766.07,25314,22.44,73870.3,15.39,-5.35,-4.61,0,*42
1500897767.32,25315,22.44,73868.5,15.37,-4.01,-3.35,0,*4D
1500897768.51,25316,22.38,73868.0,15.35,-3.07,-2.43,0,*4D
1500897769.7,25317,22.38,73868.5,15.35,-2.31,-1.55,0,*4C
1500897770.94,25318,22.44,73868.8,15.37,-1.91,-1.21,0,*4B
1500897772.18,25319,22.44,73868.5,15.37,-1.35,-0.69,0,*79
1500897773.36,25320,22.44,73874.0,15.39,-1.33,-0.65,0,*77
1500897774.58,25321,22.38,73866.8,15.39,-2.03,-1.33,0,*44
1500897775.82,25322,22.44,73870.0,15.43,-2.03,-1.47,0,*49
1500897777.01,25323,22.44,73870.0,15.39,-2.43,-1.79,0,*4C
1500897778.2,25324,22.44,73870.3,15.43,-4.17,-3.75,0,*4F
1500897779.44,25325,22.44,73864.8,15.37,-4.01,-3.31,0,*4A
1500897780.66,25326,22.38,73866.5,15.35,-3.47,-2.91,0,*45
1500897781.87,25327,22.38,73862.5,15.35,-4.13,-3.47,0,*48
1500897783.1,25328,22.44,73866.0,15.33,-3.91,-3.39,0,*45
1500897784.31,25329,22.44,73870.8,15.31,-4.77,-4.37,0,*40
1500897785.56,25330,22.44,73864.3,15.29,-6.09,-5.61,0,*48
1500897786.79,25331,22.44,73864.8,15.25,-4.77,-4.25,0,*4F
1500897788.0,25332,22.44,73868.3,15.23,-4.93,-4.49,0,*4A
1500897789.22,25333,22.44,73868.8,15.21,-4.45,-4.05,0,*4A
1500897790.45,25334,22.38,73864.0,15.21,-3.91,-3.39,0,*4B
1500897791.68,25335,22.44,73868.0,15.17,-4.85,-4.45,0,*41
1500897792.92,25336,22.44,73864.0,15.15,-3.95,-3.59,0,*4C
1500897794.12,25337,22.38,73864.8,15.13,-4.25,-3.83,0,*40
1500897795.31,25338,22.44,73868.0,15.13,-3.75,-3.39,0,*4C
1500897796.57,25339,22.44,73870.0,15.11,-2.95,-2.63,0,*4E
1500897797.78,25340,22.44,73870.5,15.09,-4.33,-4.01,0,*41
1500897799.02,25341,22.44,73872.5,15.09,-4.01,-3.67,0,*46
1500897800.26,25342,22.44,73870.5,15.09,-2.51,-2.03,0,*45
1500897801.48,25343,22.44,73870.5,15.09,-1.99,-1.63,0,*46
1500897802.73,25344,22.44,73868.3,15.11,-2.07,-1.63,0,*4C
1500897803.97,25345,22.44,73868.5,15.11,-3.23,-2.75,0,*4E
1500897805.22,25346,22.44,73864.8,15.11,-3.19,-2.75,0,*44
1500897806.43,25347,22.44,73868.0,15.11,-2.19,-1.63,0,*40
1500897807.68,25348,22.44,73862.5,15.11,-2.11,-1.63,0,*47
1500897808.92,25349,22.44,73862.3,15.11,-1.83,-1.55,0,*4B
1500897810.16,25350,22.44,73866.5,15.11,-2.39,-2.11,0,*42
1500897811.42,25351,22.44,73862.5,15.11,-2.71,-2.59,0,*43
1500897812.67,25352,22.38,73858.3,15.11,-2.87,-2.71,0,*43
1500897813.91,25353,22.38,73858.0,15.11,-1.95,-1.71,0,*41
1500897815.13,25354,22.44,73860.5,15.13,-1.87,-1.59,0,*4D
1500897816.34,25355,22.38,73856.5,15.13,-1.43,-1.21,0,*4B
1500897817.56,25356,22.44,73856.8,15.15,-2.35,-2.31,0,*4E
1500897818.81,25357,22.44,73854.5,15.13,-2.71,-2.51,0,*4F
1500897820.05,25358,22.44,73858.8,15.15,-1.95,-1.71,0,*4E
1500897821.32,25359,22.44,73858.8,15.15,-2.55,-2.47,0,*46
1500897822.54,25360,22.38,73856.0,15.13,-1.95,-1.63,0,*40
1500897823.8,25361,22.44,73856.3,15.15,-2.67,-2.47,0,*4C
1500897825.05,25362,22.44,73858.5,15.15,-2.15,-2.07,0,*4E
1500897826.24,25363,22.38,73854.8,15.13,-2.35,-2.23,0,*4D
1500897827.43,25364,22.44,73856.3,15.13,-3.27,-3.19,0,*40
1500897828.66,25365,22.38,73856.3,15.13,-3.51,-3.51,0,*4C
1500897829.86,25366,22.44,73860.3,15.13,-2.95,-2.83,0,*48
1500897831.1,25367,22.44,73860.5,15.11,-2.51,-2.39,0,*42
1500897832.36,25368,22.44,73860.3,15.11,-1.01,-0.85,0,*7E
1500897833.57,25369,22.44,73864.0,15.15,-0.29,-0.11,0,*4D
1500897834.81,25370,22.44,73864.0,15.15,-0.23,-0.11,0,*4F
1500897836.05,25371,22.44,73866.0,15.21,-2.51,-2.43,0,*4B
1500897837.32,25372,22.38,73864.8,15.17,-2.71,-2.55,0,*48
1500897838.56,25373,22.38,73866.3,15.17,-1.59,-1.43,0,*44
1500897839.81,25374,22.38,73864.5,15.21,-1.51,-1.47,0,*4A
1500897841.05,25375,22.44,73864.0,15.21,-1.47,-1.29,0,*44
1500897842.3,25376,22.44,73860.3,15.21,-1.01,-0.81,0,*76
1500897843.48,25377,22.38,73860.8,15.23,-0.61,-0.37,0,*4F
1500897844.72,25378,22.44,73864.3,15.25,-1.33,-1.13,0,*47
1500897845.97,25379,22.38,73860.5,15.25,-2.27,-2.07,0,*46
1500897847.21,25380,22.44,73864.3,15.25,-2.59,-2.39,0,*44
1500897848.44,25381,22.44,73866.3,15.25,-0.97,-0.61,0,*4A
1500897849.67,25382,22.44,73864.5,15.25,-0.49,-0.23,0,*4C
1500897850.87,25383,22.38,73862.8,15.29,-0.29,-0.03,0,*75
1500897852.07,25384,22.44,73866.0,15.31,-0.85,-0.65,0,*4D
1500897853.3,25385,22.44,73866.3,15.33,-0.97,-0.65,0,*4D
1500897854.53,25386,22.44,73866.8,15.33,-0.85,-0.57,0,*4C
1500897855.77,25387,22.44,73860.3,15.33,-0.89,-0.73,0,*47
1500897857.0,25388,22.44,73864.5,15.37,-1.17,-0.85,0,*73
1500897858.25,25389,22.44,73864.5,15.37,-2.31,-2.03,0,*49
1500897859.51,25390,22.44,73864.5,15.37,-2.71,-2.55,0,*46
1500897860.74,25391,22.44,73866.0,15.35,-2.31,-2.07,0,*46
1500897861.96,25392,22.38,73860.5,15.35,-2.55,-2.31,0,*42
1500897863.2,25393,22.44,73864.3,15.37,-2.03,-1.59,0,*4F
1500897864.44,25394,22.44,73866.3,15.37,-2.23,-2.03,0,*46
1500897865.68,25395,22.44,73868.0,15.37,-2.31,-2.03,0,*44
1500897866.93,25396,22.44,73864.5,15.37,-2.03,-1.71,0,*40
1500897868.15,25397,22.44,73868.3,15.35,-1.47,-1.29,0,*4D
1500897869.36,25398,22.44,73866.5,15.37,-1.21,-0.81,0,*73
1500897870.55,25399,22.44,73864.5,15.39,-0.81,-0.53,0,*48
1500897871.76,25400,22.44,73864.0,15.39,-1.75,-1.39,0,*48
1500897872.96,25401,22.44,73864.8,15.43,-3.39,-3.27,0,*43
1500897874.17,25402,22.44,73866.3,15.39,-3.51,-3.15,0,*42
1500897875.4,25403,22.38,73864.8,15.39,-1.43,-1.13,0,*46
1500897876.62,25404,22.44,73870.3,15.43,-1.29,-1.09,0,*4B
1500897877.81,25405,22.44,73868.3,15.43,-1.59,-1.29,0,*4F
1500897879.02,25406,22.44,73868.8,15.43,-1.29,-0.97,0,*7F
1500897880.24,25407,22.44,73864.5,15.43,-2.27,-1.99,0,*4C
1500897881.45,25408,22.44,73866.3,15.43,-2.51,-2.27,0,*44
1500897882.64,25409,22.44,73866.3,15.43,-2.99,-2.87,0,*4B
1500897883.86,25410,22.44,73864.3,15.39,-5.35,-5.11,0,*47
1500897885.07,25411,22.44,73866.5,15.35,-4.85,-4.21,0,*42
1500897886.3,25412,22.44,73862.5,15.35,-4.21,-4.01,0,*4D
1500897887.49,25413,22.44,73864.0,15.31,-4.65,-4.37,0,*4D
1500897888.68,25414,22.38,73860.8,15.31,-4.61,-4.41,0,*4F
1500897889.88,25415,22.44,73864.8,15.31,-4.17,-3.91,0,*45
1500897891.11,25416,22.44,73870.3,15.29,-4.99,-4.73,0,*42
1500897892.33,25417,22.44,73868.0,15.27,-4.85,-4.61,0,*43
1500897893.55,25418,22.44,73864.3,15.23,-4.01,-3.83,0,*4F
1500897894.75,25419,22.44,73864.3,15.23,-4.41,-4.25,0,*41
1500897895.96,25420,22.44,73864.5,15.23,-3.87,-3.63,0,*43
1500897897.23,25421,22.44,73866.8,15.21,-3.55,-3.43,0,*4D
1500897898.45,25422,22.44,73870.3,15.21,-2.79,-2.43,0,*40
1500897899.69,25423,22.38,73866.0,15.21,-1.67,-1.39,0,*43
1500897900.94,25424,22.44,73864.3,15.21,-1.91,-1.67,0,*46
1500897902.16,25425,22.44,73870.5,15.23,-2.27,-2.11,0,*49
1500897903.44,25426,22.44,73870.0,15.25,-2.07,-1.99,0,*4D
1500897904.68,25427,22.38,73864.0,15.25,-2.63,-2.39,0,*47
1500897905.92,25428,22.44,73866.3,15.25,-1.83,-1.59,0,*40
1500897907.14,25429,22.44,73868.5,15.27,-2.59,-2.43,0,*4F
1500897908.38,25430,22.44,73868.0,15.27,-2.07,-1.95,0,*44
1500897909.62,25431,22.44,73864.0,15.29,-2.15,-1.99,0,*44
1500897910.89,25432,22.44,73866.3,15.29,-2.11,-1.91,0,*4B
1500897912.1,25433,22.44,73862.0,15.29,-1.79,-1.55,0,*4F
1500897913.38,25434,22.44,73864.8,15.29,-2.63,-2.63,0,*46
1500897914.57,25435,22.44,73864.5,15.31,-2.95,-2.83,0,*49
1500897915.79,25436,22.44,73864.8,15.29,-2.31,-2.31,0,*44
1500897917.04,25437,22.44,73868.8,15.29,-1.87,-1.67,0,*4B
1500897918.28,25438,22.44,73866.5,15.29,-1.87,-1.75,0,*47
1500897919.5,25439,22.44,73866.3,15.29,-4.17,-4.29,0,*46
1500897920.74,25440,22.44,73862.3,15.27,-5.81,-5.81,0,*4B
1500897921.94,25441,22.44,73870.8,15.23,-3.87,-3.87,0,*4E
1500897923.19,25442,22.38,73866.5,15.23,-4.89,-5.03,0,*4E
1500897924.45,25443,22.38,73864.8,15.17,-4.73,-4.81,0,*46
1500897925.67,25444,22.44,73864.5,15.15,-4.37,-4.33,0,*4A
1500897926.86,25445,22.44,73864.8,15.13,-3.83,-3.95,0,*4E
1500897928.06,25446,22.44,73864.0,15.13,-3.75,-3.95,0,*44
1500897929.25,25447,22.38,73866.5,15.13,-4.37,-4.41,0,*4A
1500897930.44,25448,22.44,73864.5,15.09,-4.53,-4.57,0,*4B
1500897931.65,25449,22.44,73870.0,15.09,-4.53,-4.69,0,*47
1500897932.88,25450,22.44,73870.8,15.07,-4.93,-4.99,0,*42
1500897934.08,25451,22.44,73864.8,15.05,-4.25,-4.41,0,*49
1500897935.3,25452,22.44,73868.0,15.01,-4.61,-4.85,0,*46
1500897936.54,25453,22.44,73868.8,14.99,-3.39,-3.63,0,*42
1500897937.76,25454,22.44,73868.3,14.99,-4.17,-4.29,0,*47
1500897938.99,25455,22.44,73866.5,14.99,-3.91,-4.21,0,*47
1500897940.21,25456,22.44,73868.0,14.95,-3.95,-3.95,0,*44
1500897941.4,25457,22.44,73862.8,14.93,-3.11,-3.19,0,*4B
1500897942.63,25458,22.44,73868.8,14.93,-3.83,-4.01,0,*41
1500897943.88,25459,22.44,73870.0,14.91,-3.83,-4.01,0,*42
1500897945.12,25460,22.44,73870.8,14.91,-4.65,-4.85,0,*4B
1500897946.39,25461,22.44,73870.0,14.87,-3.55,-3.71,0,*45
1500897947.63,25462,22.44,73870.3,14.87,-3.39,-3.59,0,*46
1500897948.88,25463,22.44,73866.8,14.87,-2.35,-2.55,0,*47
1500897950.1,25464,22.44,73870.0,14.87,-1.75,-1.79,0,*4A
1500897951.34,25465,22.44,73866.8,14.89,-1.35,-1.91,0,*47
1500897952.53,25466,22.38,73866.3,14.89,-2.23,-2.27,0,*4E
1500897953.78,25467,22.44,73870.3,14.91,-1.21,-1.35,0,*47
1500897955.0,25468,22.38,73868.3,14.89,-1.35,-1.51,0,*46
1500897956.23,25469,22.38,73862.3,14.93,-0.93,-1.05,0,*70
1500897957.46,25470,22.44,73866.3,14.93,-2.31,-2.47,0,*47
1500897958.68,25471,22.44,73868.0,14.93,-1.67,-1.83,0,*4D
1500897959.91,25472,22.44,73866.5,14.93,-0.85,-1.13,0,*7A
1500897961.12,25473,22.44,73866.5,14.95,-0.29,-0.57,0,*4A
1500897962.35,25474,22.44,73868.3,14.99,-0.77,-1.01,0,*78
1500897963.58,25475,22.38,73866.3,14.95,-0.69,-0.93,0,*40
1500897964.84,25476,22.44,73870.3,14.99,-0.85,-1.13,0,*74
1500897966.07,25477,22.44,73870.0,14.99,-0.49,-0.89,0,*47
1500897967.3,25478,22.44,73864.3,14.99,-0.77,-1.13,0,*77
1500897968.55,25479,22.44,73868.8,15.01,-1.05,-1.47,0,*43
1500897969.77,25480,22.44,73868.0,15.01,-1.13,-1.51,0,*45
1500897971.0,25481,22.44,73868.5,15.03,-0.81,-1.21,0,*7B
1500897972.21,25482,22.44,73870.3,15.01,-1.35,-1.75,0,*45
1500897973.45,25483,22.44,73870.5,15.03,-0.49,-0.85,0,*42
1500897974.69,25484,22.44,73864.0,15.03,-0.73,-1.13,0,*72
1500897975.92,25485,22.44,73866.5,15.03,-0.61,-1.01,0,*73
1500897977.13,25486,22.44,73866.0,15.03,-0.33,-0.81,0,*4E
1500897978.37,25487,22.44,73870.0,15.03,-0.61,-1.13,0,*72
1500897979.58,25488,22.44,73868.0,15.03,-0.11,-0.69,0,*46
1500897980.86,25489,22.44,73868.8,15.03,-0.97,-1.47,0,*74
1500897982.1,25490,22.44,73868.5,15.03,-0.81,-1.35,0,*7E
1500897983.3,25491,22.44,73866.8,15.05,-1.21,-1.75,0,*46
1500897984.56,25492,22.44,73868.5,15.03,-0.27,-0.93,0,*4D
1500897985.77,25493,22.44,73866.3,15.01,-0.19,-0.97,0,*47
1500897986.98,25494,22.44,73866.5,15.03,-0.61,-1.33,0,*72
1500897988.17,25495,22.44,73870.0,15.01,-1.63,-2.39,0,*4B
1500897989.39,25496,22.44,73866.3,15.01,-1.01,-1.79,0,*4B
1500897990.6,25497,22.44,73866.0,15.01,-0.85,-1.59,0,*75
1500897991.85,25498,22.44,73868.5,15.03,-0.69,-1.47,0,*75
1500897993.09,25499,22.44,73868.3,14.99,-0.19,-1.05,0,*77
1500897994.28,25500,22.44,73872.8,15.01,0.13,-0.65,0,*66
1500897995.5,25501,22.44,73872.3,15.01,0.25,-0.85,0,*6C
1500897996.71,25502,22.44,73874.0,15.01,-0.03,-0.89,0,*7A
1500897997.94,25503,22.44,73870.8,15.03,0.41,-0.45,0,*62
1500897999.13,25504,22.44,73870.5,15.01,0.21,-0.65,0,*63
1500898000.36,25505,22.44,73870.0,15.03,0.25,-0.73,0,*63
1500898001.59,25506,22.44,73868.8,15.03,0.37,-0.69,0,*68
1500898002.81,25507,22.44,73870.0,15.01,0.13,-0.89,0,*63
1500898004.04,25508,22.44,73870.3,15.03,0.63,-0.37,0,*6C
1500898005.27,25509,22.44,73870.8,15.03,0.67,-0.37,0,*69
1500898006.49,25510,22.44,73868.0,15.05,0.75,-0.27,0,*65
1500898007.72,25511,22.44,73870.0,15.05,0.87,-0.27,0,*69
1500898008.93,25512,22.44,73868.8,15.07,1.05,-0.07,0,*61
1500898010.14,25513,22.44,73868.3,15.07,1.01,-0.19,0,*5B
1500898011.39,25514,22.44,73870.5,15.07,1.51,0.33,0,*7C
1500898012.6,25515,22.44,73866.8,15.07,-0.19,-1.63,0,*74
1500898013.81,25516,22.44,73864.3,15.07,-0.29,-1.59,0,*7D
1500898015.03,25517,22.44,73866.8,15.07,0.17,-1.17,0,*56
1500898016.23,25518,22.44,73866.0,15.05,0.75,-0.69,0,*67
1500898017.41,25519,22.44,73868.5,15.05,0.09,-1.33,0,*63
1500898018.66,25520,22.44,73868.8,15.05,-1.01,-2.51,0,*4A
1500898019.86,25521,22.44,73868.8,15.05,-0.49,-1.95,0,*7D
1500898021.08,25522,22.44,73868.0,15.03,0.97,-0.45,0,*6A
1500898022.3,25523,22.44,73870.0,15.03,0.63,-0.81,0,*68
1500898023.56,25524,22.44,73870.0,15.03,1.59,0.13,0,*71
1500898024.8,25525,22.44,73870.0,15.07,2.09,0.33,0,*70
1500898026.0,25526,22.44,73870.8,15.09,1.59,0.09,0,*42
1500898027.2,25527,22.44,73870.5,15.09,1.41,-0.27,0,*5B
1500898028.43,25528,22.44,73874.3,15.07,0.41,-1.21,0,*5C
1500898029.65,25529,22.44,73868.3,15.07,-0.07,-1.71,0,*47
1500898030.85,25530,22.44,73870.3,15.07,1.75,0.05,0,*49
1500898032.05,25531,22.44,73870.0,15.09,2.31,0.75,0,*72
1500898033.28,25532,22.44,73868.0,15.09,2.17,0.47,0,*74
1500898034.54,25533,22.44,73870.5,15.11,2.47,0.87,0,*75
1500898035.75,25534,22.44,73866.8,15.13,1.25,-0.57,0,*57
1500898036.97,25535,22.44,73870.8,15.15,0.63,-1.17,0,*56
1500898038.2,25536,22.44,73866.3,15.13,1.47,-0.27,0,*56
1500898039.42,25537,22.44,73870.5,15.13,1.33,-0.49,0,*5C
1500898040.62,25538,22.44,73870.0,15.13,1.71,-0.03,0,*6B
1500898041.87,25539,22.44,73868.3,15.15,2.25,0.51,0,*74
1500898043.09,25540,22.44,73870.5,15.15,1.89,0.09,0,*42
1500898044.33,25541,22.44,73868.5,15.15,1.85,-0.07,0,*6C
1500898045.58,25542,22.44,73870.3,15.17,2.13,0.33,0,*7B
1500898046.81,25543,22.44,73864.8,15.21,1.59,-0.29,0,*54
1500898048.06,25544,22.44,73864.8,15.21,1.21,-0.77,0,*57
1500898049.3,25545,22.44,73866.3,15.21,1.29,-0.65,0,*5D
1500898050.53,25546,22.44,73868.5,15.21,0.71,-1.29,0,*5B
1500898051.79,25547,22.44,73864.0,15.21,0.87,-1.13,0,*5A
1500898053.04,25548,22.44,73864.5,15.21,1.21,-0.73,0,*5F
1500898054.27,25549,22.44,73870.5,15.21,0.55,-1.55,0,*59
1500898055.53,25550,22.44,73866.0,15.21,0.83,-1.13,0,*58
1500898056.74,25551,22.44,73866.5,15.17,1.75,-0.19,0,*5F
1500898057.99,25552,22.44,73870.0,15.21,1.21,-0.81,0,*59
1500898059.22,25553,22.44,73866.3,15.21,0.79,-1.29,0,*57
1500898060.47,25554,22.44,73868.0,15.17,1.13,-0.73,0,*56
1500898061.7,25555,22.44,73866.8,15.21,2.13,0.05,0,*4D
1500898062.93,25556,22.44,73864.0,15.17,0.05,-1.87,0,*68
1500898064.16,25557,22.44,73866.8,15.21,0.13,-1.79,0,*5A
1500898065.4,25558,22.44,73864.0,15.17,1.51,-0.41,0,*5D
1500898066.64,25559,22.44,73862.3,15.21,1.93,-0.07,0,*65
1500898067.88,25560,22.44,73866.5,15.21,1.71,-0.37,0,*50
1500898069.11,25561,22.44,73866.0,15.21,1.51,-0.61,0,*50
1500898070.35,25562,22.44,73860.5,15.23,1.13,-0.97,0,*5E
1500898071.59,25563,22.44,73860.8,15.25,1.93,-0.11,0,*5F
1500898072.8,25564,22.44,73862.3,15.23,1.43,-0.69,0,*5C
1500898074.03,25565,22.44,73862.3,15.25,1.63,-0.37,0,*52
1500898075.26,25566,22.44,73864.5,15.23,1.33,-0.77,0,*56
1500898076.47,25567,22.44,73866.0,15.25,1.83,-0.15,0,*5E
1500898077.67,25568,22.44,73866.5,15.27,2.31,0.41,0,*75
1500898078.9,25569,22.44,73866.3,15.27,2.51,0.51,0,*73
1500898080.15,25570,22.44,73868.3,15.29,1.55,-0.41,0,*5E
1500898081.38,25571,22.44,73864.0,15.29,1.51,-0.49,0,*53
1500898082.62,25572,22.44,73864.5,15.29,1.29,-0.77,0,*52
1500898083.84,25573,22.44,73866.0,15.29,0.47,-1.55,0,*5B
1500898085.08,25574,22.44,73868.8,15.29,1.29,-0.65,0,*57
1500898086.29,25575,22.38,73862.3,15.31,1.59,-0.37,0,*5F
1500898087.47,25576,22.44,73868.0,15.31,1.83,-0.15,0,*5B
1500898088.69,25577,22.44,73870.0,15.31,1.55,-0.57,0,*57
1500898089.92,25578,22.44,73868.0,15.31,1.71,-0.23,0,*5D
1500898091.13,25579,22.44,73870.3,15.31,1.21,-0.65,0,*5B
1500898092.37,25580,22.44,73868.8,15.33,1.37,-0.45,0,*5A
1500898093.6,25581,22.44,73870.8,15.33,1.97,0.09,0,*44
1500898094.83,25582,22.44,73864.5,15.33,1.47,-0.45,0,*5F
1500898096.07,25583,22.44,73870.3,15.33,2.05,0.13,0,*75
1500898097.28,25584,22.44,73870.3,15.35,1.85,0.01,0,*4C
1500898098.51,25585,22.44,73864.0,15.35,2.47,0.75,0,*73
1500898099.76,25586,22.44,73864.3,15.37,2.21,0.55,0,*70
1500898100.99,25587,22.44,73864.8,15.43,3.15,1.47,0,*46
1500898102.21,25588,22.44,73866.0,15.43,3.37,1.67,0,*4B
1500898103.47,25589,22.44,73866.5,15.45,3.03,1.29,0,*41
1500898104.68,25590,22.44,73866.3,15.49,2.73,0.95,0,*75
1500898105.91,25591,22.44,73866.8,15.47,2.13,0.37,0,*74
1500898107.14,25592,22.44,73868.0,15.49,0.91,-1.13,0,*5B
1500898108.34,25593,22.44,73864.0,15.49,0.95,-0.77,0,*6D
1500898109.56,25594,22.44,73868.3,15.49,1.21,-0.53,0,*52